Location: Newark
(39.6172°N, 96.8533°W)
Time: 19:08:08
(UTC+00:00)

Envisat - Pass Details

Date: 26 January 2020
Orbit: 764 x 766 km, 98.1° (Epoch: 19 February)

Event Time Altitude Azimuth Distance (km) Brightness Sun altitude
Rises 00:06:50 0° 160° (SSE) 3,218 6.2 -5.9°
Reaches altitude 10° 00:09:08 10° 159° (SSE) 2,296 5.5 -6.3°
Maximum altitude 00:14:10 74° 75° (ENE) 800 3.0 -7.2°
Drops below altitude 10° 00:19:15 10° 351° (N) 2,311 5.4 -8.1°
Sets 00:21:34 0° 350° (N) 3,241 6.2 -8.6°
